Language: 


Des rapports , des résumés tant et plus, au choix de chacun....


Données statistiques de la station
Quotidien Rapport Décembre 12, 2017 Unités:  Anglais    Métrique   les deux
« Précédent Jour
Suivant Jour »
Quotidien Hebdomadaire Mensuel Annuel Actuel
  Haut: Bas: Moyen:
Température: TemperatureC °F -0.2 °F 2.3 °F
Pt de rosée: DewpointC °F -1.0 °F 2.1 °F
Humidité: Humidity % 86 % 96 %
Vitesse du vent: WindSpeedKMH mph 0.0 mph 7.1 mph
Rafales: WindSpeedGustKMH mph - -
Vent:- - WSW
Pression: PressurehPa in 0.0 in -
Précipitation: 7.1 in    
Historical Graphs
 
 
Données statistiques pour Décembre 12, 2017
Heure Température Point de rosée Pression Vent Vitesse du vent Refales Humidité Pluie (taux horaire)
TemperatureC °F DewpointC °F PressurehPa in Calm     Humidity % HourlyPrecipMM in
00:00 2.3 °F 3.0 °F 993.1 in West 7.2 mph 9.0 mph 98 % 0.5 in
00:05 2.2 °F 2.0 °F 993.1 in WSW 6.9 mph 10.8 mph 98 % 0.5 in
00:15 2.3 °F 3.0 °F 993.1 in West 5.8 mph 12.2 mph 98 % 0.5 in
00:25 2.2 °F 2.0 °F 993.1 in West 6.4 mph 9.0 mph 98 % 0.3 in
00:30 2.1 °F 2.0 °F 993.1 in WSW 5.5 mph 9.3 mph 98 % 0.3 in
00:36 2.0 °F 2.0 °F 993.1 in West 9.7 mph 13.7 mph 98 % 0.8 in
00:51 1.9 °F 2.0 °F 993.1 in WSW 12.2 mph 12.2 mph 98 % 0.3 in
01:01 1.8 °F 2.0 °F 993.1 in West 15.1 mph 15.1 mph 98 % 0.3 in
01:11 1.7 °F 2.0 °F 994.1 in WSW 6.1 mph 15.1 mph 98 % 0.3 in
01:16 1.8 °F 2.0 °F 994.1 in WSW 2.6 mph 15.4 mph 98 % 0.3 in
01:26 2.0 °F 2.0 °F 994.1 in West 5.5 mph 12.6 mph 98 % 0.3 in
01:31 2.1 °F 2.0 °F 994.1 in North 9.3 mph 12.2 mph 98 % 0.3 in
01:36 2.2 °F 2.0 °F 994.1 in WNW 10.1 mph 11.9 mph 98 % 0.0 in
01:41 2.3 °F 3.0 °F 994.1 in NW 16.3 mph 16.3 mph 98 % 0.0 in
01:46 2.4 °F 3.0 °F 994.1 in WSW 10.5 mph 18.3 mph 98 % 0.0 in
01:51 2.4 °F 3.0 °F 994.1 in WNW 11.9 mph 18.3 mph 98 % 0.0 in
02:01 2.3 °F 3.0 °F 995.1 in West 6.1 mph 14.0 mph 98 % 0.3 in
02:11 2.1 °F 2.0 °F 995.1 in WSW 13.7 mph 19.1 mph 98 % 0.3 in
02:22 1.9 °F 2.0 °F 995.1 in West 8.7 mph 13.7 mph 98 % 0.3 in
02:27 1.9 °F 2.0 °F 996.2 in NE 5.5 mph 15.1 mph 98 % 0.3 in
02:37 2.3 °F 3.0 °F 996.2 in Calm   16.3 mph 98 % 0.5 in
02:42 2.3 °F 3.0 °F 996.8 in WNW 6.1 mph 16.3 mph 98 % 0.8 in
02:47 2.3 °F 3.0 °F 996.8 in West 4.7 mph 9.3 mph 98 % 0.8 in
02:57 2.1 °F 2.0 °F 996.8 in WNW 1.4 mph 10.1 mph 98 % 0.8 in
03:02 2.0 °F 2.0 °F 0.0 in Calm   8.5 mph 98 % 0.8 in
03:07 1.9 °F 2.0 °F 996.8 in Calm   7.9 mph 98 % 1.3 in
03:12 1.8 °F 2.0 °F 997.9 in Calm   6.4 mph 98 % 1.3 in
03:17 1.7 °F 2.0 °F 997.9 in West 5.0 mph 7.9 mph 98 % 1.5 in
03:22 1.6 °F 2.0 °F 997.9 in West 9.0 mph 9.7 mph 98 % 1.5 in
03:27 1.6 °F 2.0 °F 997.9 in West 5.0 mph 9.7 mph 98 % 1.8 in
03:32 1.5 °F 2.0 °F 997.9 in WSW 5.8 mph 9.7 mph 98 % 1.8 in
03:35 1.4 °F 1.0 °F 997.9 in WSW 3.2 mph 9.7 mph 98 % 1.5 in
03:40 1.3 °F 1.0 °F 997.9 in WSW 8.7 mph 9.0 mph 98 % 1.5 in
03:45 1.3 °F 1.0 °F 997.9 in WSW 9.3 mph 10.5 mph 98 % 1.5 in
03:50 1.2 °F 1.0 °F 997.9 in WSW 10.8 mph 10.8 mph 98 % 1.8 in
03:55 1.1 °F 1.0 °F 997.9 in WSW 8.7 mph 11.9 mph 98 % 1.5 in
04:00 1.1 °F 1.0 °F 997.9 in West 11.9 mph 13.7 mph 98 % 1.3 in
04:05 1.2 °F 1.0 °F 997.9 in West 12.6 mph 13.7 mph 98 % 1.3 in
04:10 1.2 °F 1.0 °F 997.9 in West 7.9 mph 13.7 mph 98 % 1.3 in
04:15 1.1 °F 1.0 °F 997.9 in WSW 9.0 mph 14.0 mph 98 % 1.3 in
04:20 1.1 °F 1.0 °F 997.9 in WSW 9.3 mph 14.0 mph 98 % 1.3 in
04:25 1.1 °F 1.0 °F 997.9 in WSW 8.7 mph 13.7 mph 98 % 1.3 in
04:30 1.0 °F 1.0 °F 997.9 in West 7.9 mph 12.6 mph 98 % 1.3 in
04:40 1.1 °F 1.0 °F 998.9 in WSW 5.8 mph 9.7 mph 98 % 1.3 in
04:45 1.1 °F 1.0 °F 998.9 in Calm   9.3 mph 98 % 1.3 in
04:50 1.1 °F 1.0 °F 998.9 in West 1.4 mph 7.9 mph 98 % 0.8 in
05:05 1.3 °F 1.0 °F 999.9 in Calm   4.3 mph 98 % 1.3 in
05:10 1.3 °F 1.0 °F 1000.9 in Calm   4.3 mph 98 % 1.3 in
05:21 1.3 °F 1.0 °F 1000.9 in West 6.9 mph 8.7 mph 98 % 0.8 in
05:26 1.4 °F 1.0 °F 1001.9 in West 9.7 mph 12.2 mph 98 % 1.0 in
05:31 1.6 °F 2.0 °F 1001.9 in West 10.1 mph 12.2 mph 98 % 1.0 in
05:36 1.6 °F 2.0 °F 1001.9 in West 9.0 mph 12.2 mph 98 % 1.0 in
05:41 1.6 °F 2.0 °F 1000.9 in WSW 6.1 mph 13.7 mph 98 % 0.8 in
05:46 1.6 °F 2.0 °F 1000.9 in West 6.9 mph 13.7 mph 98 % 0.8 in
05:51 1.7 °F 2.0 °F 1000.9 in WSW 11.9 mph 14.0 mph 98 % 1.0 in
05:52 1.7 °F 2.0 °F 1000.9 in West 11.6 mph 14.0 mph 98 % 1.0 in
05:57 1.7 °F 2.0 °F 1000.9 in WSW 15.4 mph 17.2 mph 98 % 0.8 in
06:02 1.7 °F 2.0 °F 1000.9 in WSW 9.7 mph 20.1 mph 98 % 0.8 in
06:07 1.7 °F 2.0 °F 1000.9 in West 10.8 mph 20.1 mph 98 % 0.8 in
06:17 1.7 °F 2.0 °F 1001.9 in WSW 19.8 mph 19.8 mph 98 % 0.8 in
06:22 1.7 °F 2.0 °F 1001.9 in West 6.9 mph 19.8 mph 98 % 0.3 in
06:27 1.7 °F 2.0 °F 1001.9 in WSW 7.9 mph 16.3 mph 98 % 0.3 in
06:37 1.7 °F 2.0 °F 1001.9 in WSW 9.3 mph 20.9 mph 98 % 0.3 in
06:42 1.7 °F 2.0 °F 1001.9 in West 8.7 mph 20.9 mph 98 % 0.3 in
06:47 1.8 °F 2.0 °F 1001.9 in West 16.6 mph 17.2 mph 98 % 0.0 in
06:52 1.8 °F 2.0 °F 1001.9 in West 12.6 mph 16.6 mph 98 % 0.0 in
06:57 1.8 °F 2.0 °F 1002.9 in WSW 16.9 mph 16.9 mph 98 % 0.3 in
07:02 1.8 °F 2.0 °F 1002.9 in West 10.1 mph 16.9 mph 98 % 0.3 in
07:07 1.8 °F 2.0 °F 1002.9 in WSW 6.9 mph 16.9 mph 98 % 0.3 in
07:13 1.8 °F 2.0 °F 1002.9 in West 9.3 mph 15.8 mph 98 % 0.3 in
07:18 1.9 °F 2.0 °F 1002.9 in West 5.0 mph 14.0 mph 98 % 0.3 in
07:23 1.8 °F 2.0 °F 1002.9 in West 11.6 mph 13.7 mph 98 % 0.3 in
07:33 1.8 °F 2.0 °F 1002.9 in SW 11.6 mph 12.2 mph 98 % 0.3 in
07:43 1.7 °F 2.0 °F 1002.9 in West 8.7 mph 14.0 mph 98 % 0.3 in
07:48 1.7 °F 2.0 °F 1002.9 in WSW 6.1 mph 14.0 mph 98 % 0.3 in
07:53 1.6 °F 2.0 °F 1002.9 in WSW 6.9 mph 12.6 mph 98 % 0.3 in
08:03 1.6 °F 2.0 °F 1003.9 in West 10.1 mph 13.0 mph 98 % 0.0 in
08:08 1.5 °F 2.0 °F 1003.9 in West 6.9 mph 13.0 mph 98 % 0.3 in
08:13 1.5 °F 2.0 °F 1005.0 in WSW 10.1 mph 12.2 mph 98 % 0.3 in
08:18 1.5 °F 2.0 °F 1005.0 in West 11.9 mph 13.7 mph 98 % 0.3 in
08:23 1.5 °F 2.0 °F 1005.0 in West 13.0 mph 14.3 mph 98 % 0.3 in
08:28 1.5 °F 2.0 °F 1003.9 in WSW 13.7 mph 16.3 mph 98 % 0.3 in
08:33 1.4 °F 1.0 °F 1003.9 in West 8.7 mph 16.9 mph 98 % 0.3 in
08:38 1.4 °F 1.0 °F 1003.9 in WSW 12.6 mph 16.9 mph 98 % 0.3 in
08:43 1.4 °F 1.0 °F 1005.0 in West 9.0 mph 15.8 mph 98 % 0.3 in
08:48 1.4 °F 1.0 °F 1005.0 in SW 7.9 mph 16.6 mph 98 % 0.3 in
09:03 1.5 °F 2.0 °F 1006.0 in Calm   14.0 mph 98 % 0.0 in
09:08 1.5 °F 2.0 °F 1006.0 in WSW 10.5 mph 10.5 mph 98 % 0.0 in
09:13 1.5 °F 2.0 °F 1006.0 in WSW 8.7 mph 10.5 mph 98 % 0.0 in
09:18 1.6 °F 2.0 °F 1006.0 in West 7.9 mph 10.5 mph 98 % 0.0 in
09:28 1.6 °F 2.0 °F 1006.0 in West 5.8 mph 14.0 mph 98 % 0.0 in
09:39 1.7 °F 2.0 °F 1006.0 in WSW 9.0 mph 11.9 mph 98 % 0.0 in
09:44 1.8 °F 2.0 °F 1006.0 in WSW 10.1 mph 11.9 mph 98 % 0.3 in
09:54 1.8 °F 2.0 °F 1006.0 in WSW 9.7 mph 12.2 mph 98 % 0.3 in
10:04 1.9 °F 2.0 °F 1007.0 in West 5.8 mph 9.7 mph 98 % 0.3 in
10:09 1.9 °F 2.0 °F 1007.0 in Calm   10.1 mph 98 % 0.3 in
10:14 1.9 °F 2.0 °F 1007.0 in West 6.4 mph 10.5 mph 98 % 0.3 in
10:19 1.9 °F 2.0 °F 1007.0 in WSW 6.4 mph 10.5 mph 98 % 0.3 in
10:34 2.0 °F 2.0 °F 1007.0 in WSW 15.1 mph 15.1 mph 98 % 0.3 in
10:39 2.0 °F 2.0 °F 1007.0 in WSW 10.1 mph 15.1 mph 98 % 0.3 in
10:44 2.1 °F 2.0 °F 1008.0 in WSW 9.7 mph 13.7 mph 98 % 0.0 in
10:49 2.1 °F 2.0 °F 1008.0 in WSW 12.2 mph 16.6 mph 98 % 0.0 in
11:00 2.2 °F 2.0 °F 1008.0 in WSW 12.2 mph 14.8 mph 98 % 0.0 in
11:05 2.2 °F 2.0 °F 1008.0 in SW 13.7 mph 15.4 mph 98 % 0.0 in
11:10 2.3 °F 3.0 °F 1009.0 in WSW 13.0 mph 20.6 mph 98 % 0.0 in
11:15 2.3 °F 3.0 °F 1009.0 in WSW 13.0 mph 20.6 mph 98 % 0.0 in
11:20 2.3 °F 3.0 °F 1009.0 in WSW 12.6 mph 16.3 mph 98 % 0.3 in
11:25 2.3 °F 3.0 °F 1009.0 in WSW 10.1 mph 15.1 mph 98 % 0.3 in
11:30 2.3 °F 3.0 °F 1009.0 in WSW 9.7 mph 17.2 mph 98 % 0.3 in
11:36 2.4 °F 3.0 °F 1009.0 in WSW 6.4 mph 17.2 mph 98 % 0.3 in
11:41 2.5 °F 3.0 °F 1009.0 in WSW 12.2 mph 16.3 mph 98 % 0.3 in
11:51 2.7 °F 3.0 °F 1009.0 in WSW 16.3 mph 18.0 mph 98 % 0.3 in
11:56 2.7 °F 3.0 °F 1009.0 in West 17.7 mph 19.8 mph 98 % 0.3 in
12:01 2.7 °F 3.0 °F 1009.0 in WSW 12.6 mph 19.8 mph 98 % 0.3 in
12:06 2.8 °F 3.0 °F 1009.0 in WSW 9.0 mph 18.0 mph 98 % 0.3 in
12:11 2.9 °F 3.0 °F 1010.0 in West 12.2 mph 13.7 mph 98 % 0.3 in
12:16 2.9 °F 3.0 °F 1010.0 in West 9.7 mph 16.3 mph 98 % 0.0 in
12:21 3.0 °F 3.0 °F 1010.0 in West 9.7 mph 16.3 mph 98 % 0.3 in
12:26 3.0 °F 3.0 °F 1009.0 in WSW 9.3 mph 15.4 mph 98 % 0.3 in
12:31 3.1 °F 3.0 °F 1009.0 in West 12.6 mph 15.4 mph 98 % 0.3 in
12:36 3.3 °F 3.0 °F 1009.0 in West 5.5 mph 13.0 mph 98 % 0.3 in
12:41 3.7 °F 4.0 °F 1009.0 in WSW 7.9 mph 12.6 mph 98 % 0.3 in
12:46 4.0 °F 4.0 °F 1009.0 in WSW 9.0 mph 11.1 mph 98 % 0.3 in
13:02 4.5 °F 5.0 °F 1009.0 in WSW 7.9 mph 11.9 mph 98 % 0.3 in
13:07 4.6 °F 5.0 °F 1009.0 in WSW 7.9 mph 11.1 mph 98 % 0.3 in
13:17 4.9 °F 5.0 °F 1009.0 in WSW 9.0 mph 11.6 mph 98 % 0.0 in
13:22 5.0 °F 5.0 °F 1009.0 in WSW 9.0 mph 11.6 mph 98 % 0.0 in
13:32 5.5 °F 6.0 °F 1009.0 in WSW 5.5 mph 9.7 mph 98 % 0.3 in
13:37 5.6 °F 6.0 °F 1009.0 in SW 9.3 mph 9.7 mph 98 % 0.3 in
13:42 5.6 °F 6.0 °F 1008.0 in WSW 6.9 mph 10.5 mph 98 % 0.3 in
13:52 5.9 °F 6.0 °F 1008.0 in WSW 9.7 mph 9.7 mph 97 % 0.3 in
13:58 6.0 °F 6.0 °F 1009.0 in WSW 5.0 mph 9.7 mph 96 % 0.3 in
14:03 6.0 °F 6.0 °F 1009.0 in West 4.7 mph 9.3 mph 96 % 0.3 in
14:08 6.0 °F 6.0 °F 1009.0 in West 8.7 mph 9.3 mph 95 % 0.3 in
14:18 6.0 °F 5.0 °F 1009.0 in West 4.0 mph 10.1 mph 94 % 0.3 in
14:23 6.0 °F 5.0 °F 1009.0 in WSW 7.6 mph 10.1 mph 94 % 0.3 in
14:28 6.0 °F 5.0 °F 1009.0 in Calm   10.1 mph 94 % 0.0 in
14:38 6.1 °F 5.0 °F 1009.0 in WSW 8.7 mph 10.1 mph 93 % 0.0 in
14:43 6.1 °F 5.0 °F 1009.0 in WSW 5.8 mph 10.1 mph 92 % 0.0 in
14:48 6.2 °F 5.0 °F 1009.0 in WSW 9.0 mph 10.5 mph 92 % 0.0 in
14:53 6.2 °F 5.0 °F 1009.0 in Calm   10.5 mph 91 % 0.0 in
14:58 6.3 °F 5.0 °F 1010.0 in WSW 6.1 mph 9.3 mph 90 % 0.3 in
15:03 6.4 °F 5.0 °F 1010.0 in WSW 5.8 mph 8.7 mph 90 % 0.3 in
15:08 6.5 °F 6.0 °F 1010.0 in Calm   6.9 mph 91 % 0.3 in
15:13 6.7 °F 6.0 °F 1010.0 in Calm   6.1 mph 91 % 0.3 in
15:18 6.7 °F 5.0 °F 1010.0 in WSW 4.3 mph 5.0 mph 90 % 0.3 in
15:23 6.5 °F 5.0 °F 1010.0 in WSW 9.3 mph 9.7 mph 89 % 0.3 in
15:28 6.1 °F 4.0 °F 1010.0 in West 9.3 mph 11.9 mph 87 % 0.3 in
15:33 5.8 °F 4.0 °F 1010.0 in WSW 9.0 mph 11.9 mph 87 % 0.3 in
15:38 5.7 °F 4.0 °F 1010.0 in WSW 9.7 mph 11.1 mph 87 % 0.3 in
15:43 5.5 °F 4.0 °F 1010.0 in WSW 9.7 mph 9.7 mph 86 % 0.3 in
15:48 5.3 °F 3.0 °F 1010.0 in Calm   9.7 mph 86 % 0.3 in
15:53 5.1 °F 3.0 °F 1010.0 in WSW 6.1 mph 9.0 mph 86 % 0.3 in
15:58 4.8 °F 3.0 °F 1011.1 in WSW 6.9 mph 7.6 mph 87 % 0.0 in
16:04 4.4 °F 2.0 °F 1011.1 in Calm   7.6 mph 86 % 0.0 in
16:14 3.7 °F 2.0 °F 1011.1 in WSW 5.5 mph 7.2 mph 87 % 0.0 in
16:19 3.4 °F 2.0 °F 1011.1 in Calm   6.9 mph 88 % 0.0 in
16:34 2.8 °F 2.0 °F 1011.1 in Calm   9.7 mph 89 % 0.0 in
16:39 2.6 °F 1.0 °F 1011.1 in WSW 8.7 mph 10.5 mph 90 % 0.0 in
16:44 2.5 °F 1.0 °F 1010.0 in Calm   10.5 mph 90 % 0.0 in
16:49 2.3 °F 1.0 °F 1010.0 in WSW 6.1 mph 8.7 mph 91 % 0.0 in
16:54 2.2 °F 1.0 °F 1010.0 in Calm   6.9 mph 92 % 0.0 in
16:59 2.2 °F 1.0 °F 1011.1 in Calm   5.8 mph 92 % 0.0 in
17:04 2.1 °F 1.0 °F 1011.1 in Calm     93 % 0.0 in
17:09 2.1 °F 1.0 °F 1011.1 in Calm     93 % 0.0 in
17:14 2.1 °F 1.0 °F 1011.1 in Calm     93 % 0.0 in
17:19 1.7 °F 1.0 °F 1011.1 in Calm     94 % 0.0 in
17:24 1.4 °F 1.0 °F 1011.1 in Calm     93 % 0.0 in
17:39 0.9 °F 0.0 °F 1011.1 in Calm     93 % 0.0 in
17:41 0.8 °F 0.0 °F 1011.1 in Calm     94 % 0.0 in
17:46 0.7 °F 0.0 °F 1011.1 in Calm     94 % 0.0 in
17:51 0.6 °F 0.0 °F 1011.1 in Calm   2.1 mph 95 % 0.0 in
17:56 0.5 °F 0.0 °F 1011.1 in Calm   2.1 mph 95 % 0.0 in
18:06 0.4 °F 0.0 °F 1011.1 in Calm   2.6 mph 96 % 0.0 in
18:12 0.3 °F 0.0 °F 1011.1 in Calm     96 % 0.0 in
18:22 0.1 °F 0.0 °F 1011.1 in Calm   4.0 mph 96 % 0.0 in
18:27 0.1 °F 0.0 °F 1012.1 in Calm   4.0 mph 97 % 0.0 in
18:32 0.0 °F -1.0 °F 1012.1 in Calm   4.0 mph 97 % 0.0 in
18:42 -0.2 °F -1.0 °F 1012.1 in Calm   3.2 mph 97 % 0.0 in
18:47 -0.2 °F -1.0 °F 1012.1 in Calm   3.2 mph 97 % 0.0 in
18:52 0.0 °F -1.0 °F 1012.1 in Calm   3.2 mph 98 % 0.0 in
18:57 0.0 °F -1.0 °F 1012.1 in Calm   1.4 mph 98 % 0.0 in
19:02 0.0 °F -1.0 °F 1012.1 in Calm     98 % 0.0 in
19:07 0.0 °F -1.0 °F 1012.1 in Calm   5.8 mph 98 % 0.0 in
19:27 0.0 °F -1.0 °F 1012.1 in Calm   5.5 mph 98 % 0.0 in
19:37 0.0 °F -1.0 °F 1012.1 in SSW 4.0 mph 7.6 mph 98 % 0.0 in
19:42 0.0 °F -1.0 °F 1012.1 in Calm   6.9 mph 98 % 0.0 in
19:47 0.0 °F -1.0 °F 1012.1 in Calm   7.6 mph 98 % 0.0 in
19:52 0.0 °F -1.0 °F 1012.1 in Calm   9.0 mph 98 % 0.0 in
19:57 1.1 °F 1.0 °F 1012.1 in South 7.6 mph 10.1 mph 98 % 0.0 in
20:02 1.1 °F 1.0 °F 1012.1 in SSW 5.0 mph 10.1 mph 98 % 0.0 in
20:08 1.1 °F 1.0 °F 1012.1 in SSW 5.5 mph 10.5 mph 98 % 0.0 in
20:33 1.1 °F 1.0 °F 1012.1 in SSW 4.7 mph 11.9 mph 98 % 0.0 in
20:38 1.7 °F 2.0 °F 1012.1 in SSW 6.1 mph 10.5 mph 98 % 0.0 in
20:43 1.7 °F 2.0 °F 1012.1 in SSW 4.7 mph 9.3 mph 98 % 0.0 in
20:48 1.6 °F 2.0 °F 1012.1 in South 4.7 mph 7.9 mph 98 % 0.0 in
20:53 1.6 °F 2.0 °F 1012.1 in SSW 7.6 mph 9.3 mph 98 % 0.0 in
21:03 1.7 °F 2.0 °F 1012.1 in SSW 9.3 mph 10.5 mph 98 % 0.0 in
21:08 1.6 °F 2.0 °F 1012.1 in SSW 6.4 mph 10.5 mph 98 % 0.0 in
21:13 1.7 °F 2.0 °F 1012.1 in South 9.0 mph 12.6 mph 98 % 0.0 in
21:18 1.7 °F 2.0 °F 1012.1 in South 8.7 mph 12.6 mph 98 % 0.0 in
21:23 1.7 °F 2.0 °F 1012.1 in South 8.7 mph 14.0 mph 98 % 0.0 in
21:33 1.7 °F 2.0 °F 1012.1 in SSW 6.1 mph 13.7 mph 98 % 0.0 in
21:38 1.7 °F 2.0 °F 1012.1 in SSW 4.7 mph 10.5 mph 98 % 0.0 in
21:54 1.7 °F 2.0 °F 1013.1 in South 11.1 mph 14.8 mph 98 % 0.0 in
21:59 1.7 °F 2.0 °F 1012.1 in SSE 6.9 mph 14.8 mph 98 % 0.0 in
22:04 1.7 °F 2.0 °F 1012.1 in SSW 6.9 mph 12.2 mph 98 % 0.0 in
22:09 1.7 °F 2.0 °F 1012.1 in SSW 14.0 mph 14.0 mph 98 % 0.0 in
22:14 1.7 °F 2.0 °F 1012.1 in South 6.1 mph 14.0 mph 98 % 0.0 in
22:19 1.7 °F 2.0 °F 1012.1 in South 8.7 mph 15.8 mph 98 % 0.0 in
22:29 1.7 °F 2.0 °F 1012.1 in SSW 6.4 mph 13.7 mph 98 % 0.0 in
22:34 1.6 °F 2.0 °F 1012.1 in SSW 6.1 mph 11.9 mph 98 % 0.0 in
22:44 1.6 °F 2.0 °F 1012.1 in South 11.9 mph 16.3 mph 98 % 0.0 in
22:49 1.6 °F 2.0 °F 1012.1 in SSW 8.7 mph 16.3 mph 98 % 0.0 in
22:54 1.6 °F 2.0 °F 1012.1 in SSW 9.3 mph 15.8 mph 98 % 0.0 in
22:59 1.6 °F 2.0 °F 1011.1 in South 13.0 mph 16.3 mph 98 % 0.0 in
23:09 1.6 °F 2.0 °F 1011.1 in South 11.6 mph 16.3 mph 98 % 0.0 in
23:14 1.6 °F 2.0 °F 1010.0 in SSE 16.6 mph 16.6 mph 98 % 0.0 in
23:19 1.7 °F 2.0 °F 1010.0 in SSW 15.1 mph 20.1 mph 98 % 0.0 in
23:24 1.8 °F 2.0 °F 1010.0 in SSW 10.5 mph 20.1 mph 98 % 0.0 in
23:34 1.9 °F 2.0 °F 1011.1 in South 14.0 mph 17.7 mph 98 % 0.0 in
23:44 1.9 °F 2.0 °F 1011.1 in SSW 13.0 mph 16.9 mph 98 % 0.0 in
23:55 2.0 °F 2.0 °F 1011.1 in South 9.3 mph 16.3 mph 98 % 0.0 in
Le Gheer Warneton
Courtoisie de Weather Underground - 2 mb

Mise a jour : 23/02/2018 07:53:11
Généré par Cumulus 1.9.4 (1099)